Simultaneous Nadir Overpasses (SNOs) Predictions

Prediction of SNOs between AQUA and NOAA-19 Satellite Orbit:

Table of predicted SNOs for the next 14.0 days since TLE Epoch: 12/11/2021
Index Date (AQUA) Time (AQUA) Lat,Lon (AQUA) SZA (AQUA ) Date (NOAA-19) Time (NOAA-19) Lat,Lon (NOAA-19) SZA (NOAA-19 ) Distance(km) Time Diff (sec)
1 12/12/2021 19:02:57 78.11,-124.83 101.69 12/12/2021 19:01:46 78.03,-126.11 101.71 30.85 71
2 12/12/2021 19:52:26 -78.24, 42.19 78.15 12/12/2021 19:52:47 -78.21, 42.21 78.18 3.26 21
3 12/15/2021 01:26:12 78.19, 138.99 101.95 12/15/2021 01:25:46 78.19, 138.90 101.96 2.01 26
4 12/15/2021 02:15:39 -78.23, -53.56 78.01 12/15/2021 02:16:50 -78.25, -53.47 78.01 3.17 71
5 12/17/2021 06:59:58 -78.19,-124.44 77.95 12/17/2021 06:58:56 -78.17,-124.40 77.95 1.94 62
6 12/17/2021 07:49:26 78.23, 42.99 102.11 12/17/2021 07:49:50 78.19, 43.02 102.07 4.07 24
7 12/19/2021 13:23:11 -78.19, 139.77 77.88 12/19/2021 13:22:59 -78.21, 139.88 77.86 3.20 12
8 12/19/2021 14:12:39 78.23, -52.82 102.19 12/19/2021 14:13:52 78.27, -52.42 102.18 10.19 73
9 12/21/2021 18:56:57 78.16,-123.55 102.13 12/21/2021 18:55:59 78.16,-123.54 102.15 0.28 58
10 12/21/2021 19:46:24 -78.19, 43.94 77.84 12/21/2021 19:47:03 -78.20, 43.90 77.84 1.18 39
11 12/24/2021 01:20:10 78.18, 140.58 102.14 12/24/2021 01:20:03 78.17, 140.55 102.14 1.31 7



Historial Predications of SNOs between AQUA and NOAA-19
